| time (UTC) | temp F | wind direction | speed knots | gust knots | rain 1hr in | rain 24hr in | rain mn in | humidity % | barometer mb |
| 20260507195019 | 48 | 3 | 5.2 | 7.8 | 0.00 | 0.00 | 0.02 | 87 | 1017.6 |
| 20260507194018 | 48 | 5 | 5.2 | 7.8 | 0.00 | 0.00 | 0.02 | 87 | 1017.6 |
| 20260507193026 | 49 | 358 | 5.2 | 7.8 | 0.00 | 0.00 | 0.02 | 86 | 1017.6 |
| 20260507192022 | 49 | 359 | 5.2 | 7.8 | 0.00 | 0.00 | 0.02 | 86 | 1017.6 |
| 20260507191031 | 49 | 36 | 5.2 | 12.2 | 0.00 | 0.00 | 0.02 | 85 | 1017.2 |
| 20260507185016 | 50 | 36 | 5.2 | 12.2 | 0.00 | 0.00 | 0.02 | 84 | 1017.2 |
| 20260507184018 | 50 | 36 | 5.2 | 12.2 | 0.00 | 0.00 | 0.02 | 82 | 1017.2 |
| 20260507183032 | 50 | 28 | 5.2 | 13.0 | 0.00 | 0.00 | 0.02 | 82 | 1017.2 |
| 20260507181022 | 50 | 35 | 7.8 | 13.0 | 0.00 | 0.00 | 0.02 | 80 | 1016.7 |
| 20260507175017 | 51 | 28 | 7.8 | 12.2 | 0.00 | 0.00 | 0.02 | 79 | 1016.7 |
| 20260507174025 | 51 | 33 | 7.8 | 13.0 | 0.00 | 0.00 | 0.02 | 78 | 1016.7 |
| 20260507173022 | 52 | 32 | 7.8 | 13.0 | 0.00 | 0.00 | 0.02 | 77 | 1016.7 |
| 20260507171031 | 52 | 21 | 7.0 | 14.8 | 0.00 | 0.00 | 0.02 | 77 | 1016.5 |
| 20260507165030 | 52 | 16 | 7.0 | 15.6 | 0.00 | 0.00 | 0.02 | 77 | 1016.5 |
| 20260507164019 | 52 | 26 | 7.0 | 14.8 | 0.00 | 0.00 | 0.02 | 77 | 1016.5 |
| 20260507163031 | 52 | 19 | 7.0 | 14.8 | 0.00 | 0.00 | 0.02 | 77 | 1016.5 |
| 20260507162023 | 53 | 20 | 7.0 | 15.6 | 0.00 | 0.00 | 0.02 | 75 | 1016.5 |
| 20260507161028 | 53 | 29 | 7.8 | 13.9 | 0.00 | 0.00 | 0.02 | 75 | 1016.0 |
| 20260507160019 | 54 | 24 | 7.8 | 13.9 | 0.00 | 0.00 | 0.02 | 75 | 1016.0 |
| 20260507155030 | 53 | 31 | 7.8 | 13.9 | 0.00 | 0.00 | 0.02 | 75 | 1016.0 |
| 20260507154022 | 54 | 27 | 7.8 | 13.9 | 0.00 | 0.00 | 0.02 | 75 | 1016.0 |
| 20260507153021 | 54 | 32 | 7.8 | 13.9 | 0.00 | 0.00 | 0.02 | 75 | 1016.0 |
| 20260507152021 | 54 | 28 | 7.8 | 13.9 | 0.00 | 0.00 | 0.02 | 75 | 1016.0 |
| 20260507151017 | 54 | 35 | 7.8 | 14.8 | 0.00 | 0.00 | 0.02 | 74 | 1015.7 |
| 20260507145028 | 54 | 28 | 7.8 | 14.8 | 0.00 | 0.00 | 0.02 | 75 | 1015.7 |
| 20260507143025 | 54 | 36 | 7.8 | 13.9 | 0.00 | 0.00 | 0.02 | 76 | 1015.7 |
| 20260507135018 | 53 | 26 | 7.0 | 14.8 | 0.00 | 0.00 | 0.02 | 78 | 1015.5 |
| 20260507134027 | 52 | 17 | 7.8 | 15.6 | 0.00 | 0.00 | 0.02 | 79 | 1015.5 |
| 20260507133026 | 51 | 21 | 7.0 | 14.8 | 0.00 | 0.00 | 0.02 | 80 | 1015.5 |
| 20260507132020 | 51 | 18 | 7.0 | 13.9 | 0.00 | 0.00 | 0.02 | 80 | 1015.5 |
| 20260507131026 | 50 | 49 | 6.1 | 13.9 | 0.00 | 0.00 | 0.02 | 81 | 1015.2 |
| 20260507130024 | 50 | 55 | 7.0 | 13.9 | 0.00 | 0.00 | 0.02 | 81 | 1015.2 |
| 20260507125017 | 50 | 54 | 7.0 | 14.8 | 0.00 | 0.00 | 0.02 | 81 | 1015.2 |
| 20260507124016 | 50 | 54 | 7.0 | 14.8 | 0.00 | 0.00 | 0.02 | 82 | 1015.2 |
| 20260507123018 | 50 | 56 | 7.0 | 13.9 | 0.00 | 0.00 | 0.02 | 82 | 1015.2 |
| 20260507122026 | 50 | 50 | 7.0 | 13.9 | 0.00 | 0.00 | 0.02 | 82 | 1015.2 |
| 20260507121018 | 50 | 64 | 7.8 | 13.9 | 0.00 | 0.00 | 0.02 | 82 | 1015.1 |
| 20260507115017 | 49 | 56 | 7.0 | 13.9 | 0.00 | 0.00 | 0.02 | 82 | 1015.1 |
| 20260507114028 | 49 | 54 | 7.0 | 13.0 | 0.00 | 0.00 | 0.02 | 82 | 1015.1 |
| 20260507113020 | 49 | 59 | 7.0 | 13.0 | 0.00 | 0.00 | 0.02 | 82 | 1015.1 |
| 20260507112018 | 49 | 66 | 7.8 | 13.9 | 0.00 | 0.00 | 0.02 | 83 | 1015.1 |
| 20260507111018 | 48 | 43 | 7.8 | 16.5 | 0.00 | 0.00 | 0.02 | 83 | 1014.7 |
| 20260507110026 | 48 | 41 | 8.7 | 16.5 | 0.00 | 0.00 | 0.02 | 83 | 1014.7 |
| 20260507105015 | 48 | 35 | 7.8 | 16.5 | 0.00 | 0.00 | 0.02 | 84 | 1014.7 |
| 20260507103017 | 48 | 38 | 10.4 | 18.2 | 0.00 | 0.00 | 0.02 | 84 | 1014.5 |
| 20260507102022 | 48 | 37 | 10.4 | 17.4 | 0.00 | 0.00 | 0.02 | 84 | 1014.5 |
| 20260507095029 | 48 | 45 | 10.4 | 17.4 | 0.00 | 0.00 | 0.02 | 85 | 1014.5 |
| 20260507094026 | 48 | 41 | 10.4 | 17.4 | 0.00 | 0.00 | 0.02 | 86 | 1014.5 |
| 20260507093022 | 47 | 41 | 9.6 | 16.5 | 0.00 | 0.00 | 0.02 | 86 | 1014.5 |
| 20260507092021 | 47 | 45 | 10.4 | 18.2 | 0.00 | 0.00 | 0.02 | 86 | 1014.5 |
| 20260507091023 | 47 | 45 | 7.8 | 16.5 | 0.00 | 0.00 | 0.02 | 87 | 1013.9 |
| 20260507090017 | 47 | 37 | 7.8 | 16.5 | 0.00 | 0.00 | 0.02 | 88 | 1013.9 |
| 20260507085016 | 47 | 45 | 7.8 | 16.5 | 0.00 | 0.00 | 0.02 | 88 | 1013.9 |
| 20260507084016 | 47 | 38 | 7.8 | 16.5 | 0.00 | 0.00 | 0.02 | 89 | 1013.9 |
| 20260507083022 | 46 | 41 | 7.8 | 15.6 | 0.00 | 0.00 | 0.02 | 89 | 1013.9 |
| 20260507082029 | 46 | 36 | 7.0 | 14.8 | 0.00 | 0.00 | 0.02 | 88 | 1013.9 |
| 20260507080020 | 46 | 36 | 8.7 | 15.6 | 0.00 | 0.00 | 0.02 | 89 | 1013.5 |
| 20260507075027 | 46 | 34 | 8.7 | 16.5 | 0.00 | 0.00 | 0.02 | 89 | 1013.5 |
| 20260507074018 | 46 | 27 | 8.7 | 16.5 | 0.00 | 0.00 | 0.02 | 89 | 1013.5 |
| 20260507073024 | 47 | 24 | 8.7 | 15.6 | 0.00 | 0.00 | 0.02 | 89 | 1013.5 |
| 20260507071018 | 46 | 37 | 7.8 | 14.8 | 0.00 | 0.00 | 0.02 | 90 | 1012.7 |
| 20260507070025 | 46 | 43 | 7.8 | 16.5 | 0.00 | 0.00 | 0.02 | 90 | 1012.7 |
| 20260507065019 | 46 | 44 | 7.8 | 15.6 | 0.00 | 0.00 | 0.02 | 89 | 1012.7 |
| 20260507064016 | 46 | 34 | 7.0 | 14.8 | 0.00 | 0.00 | 0.02 | 90 | 1012.7 |
| 20260507063019 | 46 | 39 | 7.0 | 14.8 | 0.00 | 0.00 | 0.02 | 90 | 1012.7 |
| 20260507062017 | 46 | 36 | 7.8 | 15.6 | 0.00 | 0.00 | 0.02 | 91 | 1012.7 |
| 20260507061028 | 46 | 44 | 7.8 | 12.2 | 0.00 | 0.00 | 0.02 | 91 | 1012.3 |
| 20260507060017 | 46 | 46 | 7.8 | 12.2 | 0.00 | 0.00 | 0.02 | 91 | 1012.3 |
| 20260507054018 | 45 | 52 | 7.8 | 13.0 | 0.00 | 0.00 | 0.02 | 92 | 1012.3 |
| 20260507053023 | 45 | 53 | 7.8 | 12.2 | 0.00 | 0.00 | 0.02 | 92 | 1012.3 |
| 20260507051025 | 45 | 36 | 7.0 | 9.6 | 0.00 | 0.00 | 0.02 | 93 | 1011.8 |
| 20260507050024 | 45 | 28 | 7.0 | 10.4 | 0.00 | 0.00 | 0.02 | 93 | 1011.8 |
| 20260507045024 | 45 | 24 | 7.0 | 10.4 | 0.00 | 0.00 | 0.02 | 93 | 1011.8 |
| 20260507044028 | 45 | 28 | 7.0 | 9.6 | 0.00 | 0.00 | 0.02 | 93 | 1011.8 |
| 20260507042030 | 45 | 26 | 7.0 | 9.6 | 0.00 | 0.00 | 0.02 | 93 | 1011.8 |
| 20260507041029 | 45 | 14 | 4.3 | 9.6 | 0.01 | 0.00 | 0.02 | 93 | 1011.5 |
| 20260507040020 | 44 | 18 | 5.2 | 10.4 | 0.02 | 0.00 | 0.02 | 93 | 1011.5 |
| 20260507035018 | 44 | 20 | 5.2 | 10.4 | 0.02 | 0.00 | 0.02 | 93 | 1011.5 |
| 20260507034026 | 45 | 24 | 4.3 | 9.6 | 0.02 | 0.00 | 0.02 | 93 | 1011.5 |
| 20260507033015 | 45 | 17 | 4.3 | 9.6 | 0.02 | 0.00 | 0.02 | 93 | 1011.5 |
| 20260507032025 | 45 | 17 | 4.3 | 9.6 | 0.02 | 0.00 | 0.02 | 93 | 1011.5 |
| 20260507031022 | 45 | 40 | 5.2 | 10.4 | 0.01 | 0.00 | 0.01 | 93 | 1011.2 |
| 20260507025027 | 45 | 34 | 5.2 | 10.4 | 0.00 | 0.00 | 0.00 | 93 | 1011.2 |
| 20260507024013 | 45 | 42 | 5.2 | 10.4 | 0.00 | 0.00 | 0.00 | 93 | 1011.2 |
| 20260507023027 | 45 | 46 | 6.1 | 11.3 | 0.00 | 0.00 | 0.00 | 93 | 1011.2 |
| 20260507022027 | 45 | 43 | 5.2 | 10.4 | 0.00 | 0.00 | 0.00 | 93 | 1011.2 |
| 20260507021014 | 45 | 46 | 6.1 | 11.3 | 0.00 | 0.00 | 0.00 | 93 | 1010.6 |
| 20260507015022 | 45 | 41 | 7.0 | 12.2 | 0.00 | 0.00 | 0.00 | 93 | 1010.6 |
| 20260507014013 | 45 | 40 | 7.0 | 12.2 | 0.00 | 0.00 | 0.00 | 92 | 1010.6 |
| 20260507013028 | 45 | 43 | 7.0 | 11.3 | 0.00 | 0.00 | 0.00 | 92 | 1010.6 |
| 20260507012017 | 45 | 34 | 7.0 | 12.2 | 0.00 | 0.00 | 0.00 | 92 | 1010.6 |
| 20260507011021 | 45 | 33 | 7.0 | 12.2 | 0.00 | 0.00 | 0.00 | 92 | 1010.7 |
| 20260507005021 | 45 | 32 | 7.0 | 12.2 | 0.00 | 0.00 | 0.00 | 92 | 1010.7 |
| 20260507004016 | 45 | 27 | 7.0 | 11.3 | 0.00 | 0.00 | 0.00 | 93 | 1010.7 |
| 20260507003024 | 44 | 35 | 7.0 | 12.2 | 0.00 | 0.00 | 0.00 | 92 | 1010.7 |
| 20260507002021 | 45 | 28 | 7.0 | 12.2 | 0.00 | 0.00 | 0.00 | 92 | 1010.7 |
| 20260507001015 | 44 | 36 | 7.8 | 14.8 | 0.00 | 0.00 | 0.00 | 92 | 1010.4 |
| 20260506233032 | 45 | 28 | 7.8 | 13.9 | 0.00 | 0.00 | 0.71 | 93 | 1010.4 |
| 20260506232031 | 45 | 32 | 8.7 | 15.6 | 0.00 | 0.00 | 0.71 | 93 | 1010.4 |
| 20260506231018 | 45 | 35 | 7.8 | 17.4 | 0.00 | 0.00 | 0.71 | 92 | 1010.3 |
| 20260506225021 | 45 | 30 | 7.8 | 16.5 | 0.00 | 0.00 | 0.71 | 92 | 1010.3 |
| 20260506223026 | 45 | 32 | 9.6 | 17.4 | 0.00 | 0.00 | 0.71 | 92 | 1010.0 |
| 20260506222028 | 45 | 30 | 9.6 | 15.6 | 0.00 | 0.00 | 0.71 | 92 | 1010.0 |
| 20260506221026 | 45 | 27 | 9.6 | 16.5 | 0.00 | 0.00 | 0.71 | 93 | 1010.0 |
| 20260506220028 | 46 | 27 | 9.6 | 16.5 | 0.00 | 0.00 | 0.71 | 93 | 1010.0 |
| 20260506215028 | 46 | 28 | 9.6 | 16.5 | 0.00 | 0.00 | 0.71 | 93 | 1010.0 |
| 20260506214025 | 46 | 33 | 9.6 | 17.4 | 0.00 | 0.00 | 0.71 | 92 | 1010.0 |
| 20260506213029 | 47 | 24 | 9.6 | 15.6 | 0.00 | 0.00 | 0.71 | 92 | 1010.0 |
| 20260506211018 | 48 | 19 | 9.6 | 16.5 | 0.00 | 0.00 | 0.71 | 92 | 1009.1 |
| 20260506205018 | 49 | 18 | 9.6 | 16.5 | 0.00 | 0.00 | 0.71 | 93 | 1009.1 |
| 20260506204025 | 50 | 22 | 8.7 | 14.8 | 0.00 | 0.00 | 0.71 | 93 | 1009.1 |
| 20260506203025 | 50 | 26 | 8.7 | 14.8 | 0.00 | 0.00 | 0.71 | 94 | 1009.1 |
| 20260506202028 | 50 | 19 | 9.6 | 16.5 | 0.00 | 0.00 | 0.71 | 94 | 1009.1 |
| 20260506201016 | 50 | 6 | 7.0 | 12.2 | 0.00 | 0.00 | 0.71 | 94 | 1008.7 |